Lucknow, India

10:50 AM IST on November 18, 2017 (GMT +0530)
Lucknow

Weather History for VILK - February, 2014

Change the Weather History Date:

Monday, February 17, 2014

  Actual Average Record
Temperature  
Mean Temperature 57 °F -  
Max Temperature 71 °F 81 °F 87 °F (2006)
Min Temperature 43 °F 58 °F 43 °F (2014)
Degree Days  
Heating Degree Days 8    
Growing Degree Days 7 (Base 50)    
Moisture  
Dew Point 49 °F    
Average Humidity 69    
Maximum Humidity 94    
Minimum Humidity 32    
Precipitation  
Precipitation 0.00 in - - ()
Sea Level Pressure  
Sea Level Pressure 29.99 in    
Wind  
Wind Speed 8 mph ()    
Max Wind Speed 18 mph    
Max Gust Speed -    
Visibility 1.4 miles    
Events Fog    
Averages and records for this station are not official NWS values.
T = Trace of Precipitation, MM = Missing Value Source: Averaged Metar Reports

Daily Weather History Graph

Daily Weather History Graph

Search for Another Location

Airport or City:

Trip Planner

Search our weather history database for the weather conditions in past years. The results will help you decide how hot, cold, wet, or windy it might be!

Date:

Astronomy

Feb. 17, 2014 Rise Set
Actual Time 6:41 AM IST 5:59 PM IST
Civil Twilight 6:17 AM IST 6:23 PM IST
Nautical Twilight 5:50 AM IST 6:50 PM IST
Astronomical Twilight 5:23 AM IST 7:17 PM IST
Moon 8:08 PM IST (2/17) 7:42 AM IST (2/17)
Length of Visible Light 12h 05m
Length of Day
11h 18m
Waning Gibbous, 95% of the Moon is Illuminated
Feb 17
Waning Gibbous
Feb 22
Last Quarter
Mar 1
New
Mar 8
First Quarter
Mar 16
Full

Hourly Weather History & Observations

Time (IST) Temp. Dew Point Humidity Pressure Visibility Wind Dir Wind Speed Gust Speed Precip Events Conditions
12:00 AM 55.4 °F 53.6 °F 94% 29.98 in 0.9 mi WSW 5.8 mph - N/A   Mist
1:00 AM 53.6 °F 51.8 °F 94% 29.98 in 0.6 mi West 5.8 mph - N/A   Mist
2:00 AM 53.6 °F 51.8 °F 94% 29.98 in 0.6 mi West 5.8 mph - N/A   Mist
2:30 AM 54 °F 52 °F 90% 30.00 in 1 mi West 5.8 mph - -   Mist
3:00 AM 53.6 °F 51.8 °F 94% 29.98 in 0.6 mi West 4.6 mph - N/A   Mist
4:00 AM 53.6 °F 51.8 °F 94% 29.95 in 0.6 mi SSW 3.5 mph - N/A   Mist
5:00 AM 50.0 °F 48.2 °F 94% 29.95 in 0.6 mi WSW 3.5 mph - N/A   Mist
5:30 AM 49 °F 47 °F 92% 30.00 in 0 mi West 3.5 mph - - Fog Patches of Fog
6:00 AM 48.2 °F 46.4 °F 93% 29.98 in 0.5 mi West 5.8 mph - N/A Fog Shallow Fog
6:30 AM 48.2 °F 46.4 °F 93% 29.98 in 0.5 mi West 5.8 mph - N/A Fog Shallow Fog
7:00 AM 48.2 °F 46.4 °F 93% 30.01 in 0.6 mi West 4.6 mph - N/A Fog Shallow Fog
7:30 AM 50.0 °F 46.4 °F 87% 30.01 in 0.6 mi West 5.8 mph - N/A Fog Shallow Fog
8:00 AM 51.8 °F 48.2 °F 88% 30.01 in 0.6 mi West 8.1 mph - N/A Fog Shallow Fog
8:30 AM 54 °F 49 °F 76% 30.05 in 1 mi West 10.4 mph - -   Mist
8:30 AM 53.6 °F 48.2 °F 82% 30.01 in 0.7 mi West 10.4 mph - N/A   Mist
9:30 AM 59.0 °F 48.2 °F 67% 30.04 in 1.2 mi WNW 9.2 mph - N/A   Haze
10:00 AM 60.8 °F 50.0 °F 68% 30.04 in 1.2 mi WNW 9.2 mph - N/A   Haze
11:00 AM 64.4 °F 51.8 °F 64% 30.04 in 1.9 mi WNW 18.4 mph - N/A   Haze
11:30 AM 67 °F 49 °F 41% 30.05 in 1 mi West 13.8 mph - -   Haze
11:30 AM 66.2 °F 48.2 °F 52% 30.04 in 1.9 mi West 13.8 mph - N/A   Haze
12:00 PM 68.0 °F 50.0 °F 52% 30.01 in 2.5 mi West 13.8 mph - N/A   Haze
12:30 PM 68.0 °F 48.2 °F 49% 30.01 in 2.5 mi West 13.8 mph - N/A   Haze
1:00 PM 68.0 °F 48.2 °F 49% 30.01 in 2.5 mi West 13.8 mph - N/A   Haze
1:30 PM 69.8 °F 48.2 °F 46% 30.01 in 2.5 mi WNW 13.8 mph - N/A   Haze
2:00 PM 69.8 °F 48.2 °F 46% 29.98 in 2.5 mi West 16.1 mph - N/A   Haze
2:30 PM 71 °F 47 °F 32% 29.98 in 2 mi WNW 13.8 mph - -   Haze
2:30 PM 69.8 °F 48.2 °F 46% 29.98 in 2.5 mi WNW 13.8 mph - N/A   Haze
3:00 PM 71.6 °F 46.4 °F 41% 29.95 in 2.5 mi West 16.1 mph - N/A   Haze
3:30 PM 71.6 °F 46.4 °F 41% 29.95 in 2.5 mi West 16.1 mph - N/A   Haze
4:00 PM 69.8 °F 48.2 °F 46% 29.95 in 2.5 mi WNW 12.7 mph - N/A   Haze
4:30 PM 69.8 °F 48.2 °F 46% 29.95 in 2.5 mi WNW 13.8 mph - N/A   Haze
5:00 PM 68.0 °F 50.0 °F 52% 29.95 in 2.5 mi WNW 11.5 mph - N/A   Haze
5:30 PM 67 °F 51 °F 47% 29.99 in 1 mi West 11.5 mph - -   Haze
5:30 PM 66.2 °F 51.8 °F 60% 29.95 in 2.2 mi West 11.5 mph - N/A   Haze
6:30 PM 62.6 °F 51.8 °F 68% 29.98 in 1.9 mi West 6.9 mph - N/A   Haze
7:00 PM 60.8 °F 51.8 °F 72% 29.98 in 1.9 mi West 6.9 mph - N/A   Haze
7:30 PM 60.8 °F 51.8 °F 72% 29.98 in 1.2 mi West 6.9 mph - N/A   Haze
8:00 PM 60.8 °F 51.8 °F 72% 30.01 in 1.2 mi West 5.8 mph - N/A   Haze
8:30 PM 59 °F 51 °F 68% 30.03 in 1 mi West 4.6 mph - -   Haze
8:30 PM 59.0 °F 51.8 °F 77% 30.01 in 1.2 mi West 4.6 mph - N/A   Haze
9:00 PM 59.0 °F 51.8 °F 77% 30.01 in 1.2 mi West 5.8 mph - N/A   Haze
10:00 PM 57.2 °F 50.0 °F 77% 30.01 in 1.0 mi West 5.8 mph - N/A   Unknown
11:30 PM 57 °F 50 °F 72% 30.02 in 1 mi West 5.8 mph - -   Mist